Tracking 29969 objects as of 6-Dec-2024
HD Live streaming from Space Station
objects crossing your sky now

ATLAS 2AS CENTAUR R/B

Track ATLAS 2AS CENTAUR R/B now!


NORAD ID: 24937
Int'l Code: 1997-050B
Perigee: 268.7 km
Apogee: 36,642.6 km
Inclination: 18.2 °
Period: 648.8 minutes
Semi major axis: 24826 km
RCS: 13.7884 m2 (large)
Launch date: September 4, 1997
Source: United States (US)
Launch site: AIR FORCE EASTERN TEST RANGE (AFETR)

Note: This is a ROCKET BODY
Your satellite tracking list
Your tracking list is empty




NASA's NSSDC Master Catalog

Two Line Element Set (TLE):
1 24937U 97050B   24340.91051616  .00008068  00000-0  29626-2 0  9997
2 24937  18.2301 162.3691 7325572 299.1414   7.5119  2.21934649202525
Source of the keplerian elements: AFSPC